Year,Month,Day,Hour,Minute,Value (Times are PST for temperature in C)
2008,07,15,00,00,11.70
2008,07,15,00,01,11.70
2008,07,15,00,02,11.70
2008,07,15,00,03,11.70
2008,07,15,00,04,11.60
2008,07,15,00,05,11.60
2008,07,15,00,06,11.60
2008,07,15,00,07,11.60
2008,07,15,00,08,11.60
2008,07,15,00,09,11.60
2008,07,15,00,10,11.50
2008,07,15,00,11,11.50
2008,07,15,00,12,11.50
2008,07,15,00,13,11.40
2008,07,15,00,14,11.40
2008,07,15,00,15,11.40
2008,07,15,00,16,11.40
2008,07,15,00,17,11.40
2008,07,15,00,18,11.40
2008,07,15,00,19,11.30
2008,07,15,00,20,11.30
2008,07,15,00,21,11.30
2008,07,15,00,22,11.30
2008,07,15,00,23,11.30
2008,07,15,00,24,11.30
2008,07,15,00,25,11.30
2008,07,15,00,26,11.30
2008,07,15,00,27,11.20
2008,07,15,00,28,11.20
2008,07,15,00,29,11.20
2008,07,15,00,30,11.20
2008,07,15,00,31,11.20
2008,07,15,00,32,11.20
2008,07,15,00,33,11.10
2008,07,15,00,34,11.10
2008,07,15,00,35,11.10
2008,07,15,00,36,11.10
2008,07,15,00,37,11.10
2008,07,15,00,38,11.10
2008,07,15,00,39,11.10
2008,07,15,00,40,11.00
2008,07,15,00,41,11.00
2008,07,15,00,42,11.00
2008,07,15,00,43,11.00
2008,07,15,00,44,10.90
2008,07,15,00,45,10.90
2008,07,15,00,46,10.90
2008,07,15,00,47,10.90
2008,07,15,00,48,10.90
2008,07,15,00,49,10.80
2008,07,15,00,50,10.80
2008,07,15,00,51,10.80
2008,07,15,00,52,10.80
2008,07,15,00,53,10.80
2008,07,15,00,54,10.70
2008,07,15,00,55,10.70
2008,07,15,00,56,10.70
2008,07,15,00,57,10.70
2008,07,15,00,58,10.70
2008,07,15,00,59,10.60
2008,07,15,01,00,10.60
2008,07,15,01,01,10.60
2008,07,15,01,02,10.60
2008,07,15,01,03,10.60
2008,07,15,01,04,10.50
2008,07,15,01,05,10.50
2008,07,15,01,06,10.50
2008,07,15,01,07,10.50
2008,07,15,01,08,10.40
2008,07,15,01,09,10.40
2008,07,15,01,10,10.40
2008,07,15,01,11,10.40
2008,07,15,01,12,10.40
2008,07,15,01,13,10.40
2008,07,15,01,14,10.30
2008,07,15,01,15,10.30
2008,07,15,01,16,10.30
2008,07,15,01,17,10.30
2008,07,15,01,18,10.30
2008,07,15,01,19,10.30
2008,07,15,01,20,10.30
2008,07,15,01,21,10.30
2008,07,15,01,22,10.30
2008,07,15,01,23,10.30
2008,07,15,01,24,10.30
2008,07,15,01,25,10.30
2008,07,15,01,26,10.20
2008,07,15,01,27,10.20
2008,07,15,01,28,10.20
2008,07,15,01,29,10.20
2008,07,15,01,30,10.20
2008,07,15,01,31,10.20
2008,07,15,01,32,10.20
2008,07,15,01,33,10.10
2008,07,15,01,34,10.10
2008,07,15,01,35,10.10
2008,07,15,01,36,10.10
2008,07,15,01,37,10.10
2008,07,15,01,38,10.10
2008,07,15,01,39,10.10
2008,07,15,01,40,10.00
2008,07,15,01,41,10.00
2008,07,15,01,42,10.00
2008,07,15,01,43,9.90
2008,07,15,01,44,9.90
2008,07,15,01,45,9.90
2008,07,15,01,46,9.90
2008,07,15,01,47,9.90
2008,07,15,01,48,9.80
2008,07,15,01,49,9.80
2008,07,15,01,50,9.80
2008,07,15,01,51,9.80
2008,07,15,01,52,9.80
2008,07,15,01,53,9.80
2008,07,15,01,54,9.80
2008,07,15,01,55,9.80
2008,07,15,01,56,9.70
2008,07,15,01,57,9.70
2008,07,15,01,58,9.70
2008,07,15,01,59,9.70
2008,07,15,02,00,9.70
2008,07,15,02,01,9.70
2008,07,15,02,02,9.60
2008,07,15,02,03,9.60
2008,07,15,02,04,9.60
2008,07,15,02,05,9.60
2008,07,15,02,06,9.60
2008,07,15,02,07,9.60
2008,07,15,02,08,9.60
2008,07,15,02,09,9.60
2008,07,15,02,10,9.60
2008,07,15,02,11,9.60
2008,07,15,02,12,9.60
2008,07,15,02,13,9.60
2008,07,15,02,14,9.60
2008,07,15,02,15,9.60
2008,07,15,02,16,9.60
2008,07,15,02,17,9.60
2008,07,15,02,18,9.60
2008,07,15,02,19,9.60
2008,07,15,02,20,9.60
2008,07,15,02,21,9.60
2008,07,15,02,22,9.60
2008,07,15,02,23,9.50
2008,07,15,02,24,9.50
2008,07,15,02,25,9.50
2008,07,15,02,26,9.50
2008,07,15,02,27,9.50
2008,07,15,02,28,9.50
2008,07,15,02,29,9.50
2008,07,15,02,30,9.50
2008,07,15,02,31,9.50
2008,07,15,02,32,9.50
2008,07,15,02,33,9.50
2008,07,15,02,34,9.50
2008,07,15,02,35,9.40
2008,07,15,02,36,9.40
2008,07,15,02,37,9.40
2008,07,15,02,38,9.40
2008,07,15,02,39,9.40
2008,07,15,02,40,9.40
2008,07,15,02,41,9.40
2008,07,15,02,42,9.40
2008,07,15,02,43,9.40
2008,07,15,02,44,9.40
2008,07,15,02,45,9.40
2008,07,15,02,46,9.40
2008,07,15,02,47,9.40
2008,07,15,02,48,9.40
2008,07,15,02,49,9.30
2008,07,15,02,50,9.30
2008,07,15,02,51,9.30
2008,07,15,02,52,9.30
2008,07,15,02,53,9.30
2008,07,15,02,54,9.30
2008,07,15,02,55,9.30
2008,07,15,02,56,9.30
2008,07,15,02,57,9.30
2008,07,15,02,58,9.20
2008,07,15,02,59,9.20
2008,07,15,03,00,9.20
2008,07,15,03,01,9.20
2008,07,15,03,02,9.20
2008,07,15,03,03,9.20
2008,07,15,03,04,9.20
2008,07,15,03,05,9.20
2008,07,15,03,06,9.20
2008,07,15,03,07,9.20
2008,07,15,03,08,9.10
2008,07,15,03,09,9.10
2008,07,15,03,10,9.10
2008,07,15,03,11,9.10
2008,07,15,03,12,9.10
2008,07,15,03,13,9.10
2008,07,15,03,14,9.10
2008,07,15,03,15,9.10
2008,07,15,03,16,9.10
2008,07,15,03,17,9.10
2008,07,15,03,18,9.10
2008,07,15,03,19,9.10
2008,07,15,03,20,9.10
2008,07,15,03,21,9.10
2008,07,15,03,22,9.10
2008,07,15,03,23,9.10
2008,07,15,03,24,9.00
2008,07,15,03,25,9.00
2008,07,15,03,26,9.00
2008,07,15,03,27,9.00
2008,07,15,03,28,9.00
2008,07,15,03,29,8.90
2008,07,15,03,30,8.90
2008,07,15,03,31,8.90
2008,07,15,03,32,8.90
2008,07,15,03,33,8.90
2008,07,15,03,34,8.90
2008,07,15,03,35,8.90
2008,07,15,03,36,8.90
2008,07,15,03,37,8.90
2008,07,15,03,38,8.80
2008,07,15,03,39,8.80
2008,07,15,03,40,8.80
2008,07,15,03,41,8.80
2008,07,15,03,42,8.80
2008,07,15,03,43,8.80
2008,07,15,03,44,8.80
2008,07,15,03,45,8.80
2008,07,15,03,46,8.80
2008,07,15,03,47,8.70
2008,07,15,03,48,8.70
2008,07,15,03,49,8.70
2008,07,15,03,50,8.70
2008,07,15,03,51,8.70
2008,07,15,03,52,8.70
2008,07,15,03,53,8.70
2008,07,15,03,54,8.70
2008,07,15,03,55,8.70
2008,07,15,03,56,8.70
2008,07,15,03,57,8.60
2008,07,15,03,58,8.60
2008,07,15,03,59,8.60
2008,07,15,04,00,8.60
2008,07,15,04,01,8.60
2008,07,15,04,02,8.60
2008,07,15,04,03,8.60
2008,07,15,04,04,8.60
2008,07,15,04,05,8.60
2008,07,15,04,06,8.60
2008,07,15,04,07,8.60
2008,07,15,04,08,8.60
2008,07,15,04,09,8.60
2008,07,15,04,10,8.50
2008,07,15,04,11,8.50
2008,07,15,04,12,8.50
2008,07,15,04,13,8.50
2008,07,15,04,14,8.50
2008,07,15,04,15,8.40
2008,07,15,04,16,8.40
2008,07,15,04,17,8.40
2008,07,15,04,18,8.40
2008,07,15,04,19,8.40
2008,07,15,04,20,8.40
2008,07,15,04,21,8.40
2008,07,15,04,22,8.40
2008,07,15,04,23,8.40
2008,07,15,04,24,8.40
2008,07,15,04,25,8.30
2008,07,15,04,26,8.30
2008,07,15,04,27,8.30
2008,07,15,04,28,8.30
2008,07,15,04,29,8.30
2008,07,15,04,30,8.30
2008,07,15,04,31,8.30
2008,07,15,04,32,8.30
2008,07,15,04,33,8.30
2008,07,15,04,34,8.20
2008,07,15,04,35,8.20
2008,07,15,04,36,8.20
2008,07,15,04,37,8.20
2008,07,15,04,38,8.20
2008,07,15,04,39,8.20
2008,07,15,04,40,8.20
2008,07,15,04,41,8.20
2008,07,15,04,42,8.20
2008,07,15,04,43,8.20
2008,07,15,04,44,8.20
2008,07,15,04,45,8.20
2008,07,15,04,46,8.20
2008,07,15,04,47,8.10
2008,07,15,04,48,8.10
2008,07,15,04,49,8.10
2008,07,15,04,50,8.10
2008,07,15,04,51,8.10
2008,07,15,04,52,8.10
2008,07,15,04,53,8.00
2008,07,15,04,54,8.00
2008,07,15,04,55,8.00
2008,07,15,04,56,8.00
2008,07,15,04,57,8.00
2008,07,15,04,58,8.00
2008,07,15,04,59,8.00
2008,07,15,05,00,7.90
2008,07,15,05,01,7.90
2008,07,15,05,02,7.90
2008,07,15,05,03,7.90
2008,07,15,05,04,7.90
2008,07,15,05,05,7.90
2008,07,15,05,06,7.90
2008,07,15,05,07,7.90
2008,07,15,05,08,7.90
2008,07,15,05,09,7.90
2008,07,15,05,10,7.90
2008,07,15,05,11,7.90
2008,07,15,05,12,7.90
2008,07,15,05,13,7.90
2008,07,15,05,14,7.90
2008,07,15,05,15,7.90
2008,07,15,05,16,7.90
2008,07,15,05,17,7.90
2008,07,15,05,18,7.80
2008,07,15,05,19,7.80
2008,07,15,05,20,7.80
2008,07,15,05,21,7.80
2008,07,15,05,22,7.80
2008,07,15,05,23,7.80
2008,07,15,05,24,7.80
2008,07,15,05,25,7.80
2008,07,15,05,26,7.80
2008,07,15,05,27,7.80
2008,07,15,05,28,7.80
2008,07,15,05,29,7.80
2008,07,15,05,30,7.80
2008,07,15,05,31,7.80
2008,07,15,05,32,7.80
2008,07,15,05,33,7.80
2008,07,15,05,34,7.80
2008,07,15,05,35,7.80
2008,07,15,05,36,7.70
2008,07,15,05,37,7.70
2008,07,15,05,38,7.70
2008,07,15,05,39,7.70
2008,07,15,05,40,7.70
2008,07,15,05,41,7.80
2008,07,15,05,42,7.80
2008,07,15,05,43,7.80
2008,07,15,05,44,7.80
2008,07,15,05,45,7.70
2008,07,15,05,46,7.70
2008,07,15,05,47,7.70
2008,07,15,05,48,7.70
2008,07,15,05,49,7.70
2008,07,15,05,50,7.70
2008,07,15,05,51,7.70
2008,07,15,05,52,7.70
2008,07,15,05,53,7.70
2008,07,15,05,54,7.70
2008,07,15,05,55,7.70
2008,07,15,05,56,7.70
2008,07,15,05,57,7.70
2008,07,15,05,58,7.70
2008,07,15,05,59,7.70
2008,07,15,06,00,7.70
2008,07,15,06,01,7.70
2008,07,15,06,02,7.70
2008,07,15,06,03,7.70
2008,07,15,06,04,7.70
2008,07,15,06,05,7.70
2008,07,15,06,06,7.70
2008,07,15,06,07,7.70
2008,07,15,06,08,7.70
2008,07,15,06,09,7.80
2008,07,15,06,10,7.80
2008,07,15,06,11,7.80
2008,07,15,06,12,7.80
2008,07,15,06,13,7.80
2008,07,15,06,14,7.80
2008,07,15,06,15,7.80
2008,07,15,06,16,7.80
2008,07,15,06,17,7.80
2008,07,15,06,18,7.80
2008,07,15,06,19,7.80
2008,07,15,06,20,7.90
2008,07,15,06,21,7.90
2008,07,15,06,22,7.90
2008,07,15,06,23,7.90
2008,07,15,06,24,7.90
2008,07,15,06,25,7.90
2008,07,15,06,26,7.90
2008,07,15,06,27,8.00
2008,07,15,06,28,8.00
2008,07,15,06,29,8.00
2008,07,15,06,30,8.00
2008,07,15,06,31,8.00
2008,07,15,06,32,8.10
2008,07,15,06,33,8.10
2008,07,15,06,34,8.10
2008,07,15,06,35,8.10
2008,07,15,06,36,8.10
2008,07,15,06,37,8.10
2008,07,15,06,38,8.20
2008,07,15,06,39,8.20
2008,07,15,06,40,8.20
2008,07,15,06,41,8.20
2008,07,15,06,42,8.30
2008,07,15,06,43,8.30
2008,07,15,06,44,8.30
2008,07,15,06,45,8.30
2008,07,15,06,46,8.40
2008,07,15,06,47,8.40
2008,07,15,06,48,8.40
2008,07,15,06,49,8.40
2008,07,15,06,50,8.40
2008,07,15,06,51,8.40
2008,07,15,06,52,8.50
2008,07,15,06,53,8.50
2008,07,15,06,54,8.50
2008,07,15,06,55,8.60
2008,07,15,06,56,8.60
2008,07,15,06,57,8.60
2008,07,15,06,58,8.60
2008,07,15,06,59,8.60
2008,07,15,07,00,8.70
2008,07,15,07,01,8.70
2008,07,15,07,02,8.70
2008,07,15,07,03,8.70
2008,07,15,07,04,8.80
2008,07,15,07,05,8.80
2008,07,15,07,06,8.90
2008,07,15,07,07,8.90
2008,07,15,07,08,9.00
2008,07,15,07,09,9.00
2008,07,15,07,10,9.10
2008,07,15,07,11,9.10
2008,07,15,07,12,9.20
2008,07,15,07,13,9.20
2008,07,15,07,14,9.30
2008,07,15,07,15,9.30
2008,07,15,07,16,9.30
2008,07,15,07,17,9.40
2008,07,15,07,18,9.40
2008,07,15,07,19,9.40
2008,07,15,07,20,9.50
2008,07,15,07,21,9.60
2008,07,15,07,22,9.60
2008,07,15,07,23,9.60
2008,07,15,07,24,9.70
2008,07,15,07,25,9.70
2008,07,15,07,26,9.80
2008,07,15,07,27,9.80
2008,07,15,07,28,9.90
2008,07,15,07,29,10.00
2008,07,15,07,30,10.10
2008,07,15,07,31,10.20
2008,07,15,07,32,10.30
2008,07,15,07,33,10.50
2008,07,15,07,34,10.60
2008,07,15,07,35,10.80
2008,07,15,07,36,11.00
2008,07,15,07,37,11.20
2008,07,15,07,38,11.30
2008,07,15,07,39,11.50
2008,07,15,07,40,11.70
2008,07,15,07,41,11.90
2008,07,15,07,42,12.10
2008,07,15,07,43,12.20
2008,07,15,07,44,12.40
2008,07,15,07,45,12.70
2008,07,15,07,46,12.90
2008,07,15,07,47,13.10
2008,07,15,07,48,13.30
2008,07,15,07,49,13.50
2008,07,15,07,50,13.70
2008,07,15,07,51,13.80
2008,07,15,07,52,14.00
2008,07,15,07,53,14.10
2008,07,15,07,54,14.30
2008,07,15,07,55,14.40
2008,07,15,07,56,14.50
2008,07,15,07,57,14.70
2008,07,15,07,58,14.90
2008,07,15,07,59,15.00
2008,07,15,08,00,15.10
2008,07,15,08,01,15.30
2008,07,15,08,02,15.40
2008,07,15,08,03,15.60
2008,07,15,08,04,15.80
2008,07,15,08,05,15.90
2008,07,15,08,06,16.10
2008,07,15,08,07,16.20
2008,07,15,08,08,16.40
2008,07,15,08,09,16.50
2008,07,15,08,10,16.60
2008,07,15,08,11,16.70
2008,07,15,08,12,16.80
2008,07,15,08,13,16.90
2008,07,15,08,14,17.10
2008,07,15,08,15,17.20
2008,07,15,08,16,17.30
2008,07,15,08,17,17.40
2008,07,15,08,18,17.50
2008,07,15,08,19,17.60
2008,07,15,08,20,17.70
2008,07,15,08,21,17.80
2008,07,15,08,22,17.90
2008,07,15,08,23,18.00
2008,07,15,08,24,18.10
2008,07,15,08,25,18.10
2008,07,15,08,26,18.20
2008,07,15,08,27,18.20
2008,07,15,08,28,18.10
2008,07,15,08,29,18.10
2008,07,15,08,30,18.10
2008,07,15,08,31,18.10
2008,07,15,08,32,18.20
2008,07,15,08,33,18.20
2008,07,15,08,34,18.20
2008,07,15,08,35,18.30
2008,07,15,08,36,18.40
2008,07,15,08,37,18.50
2008,07,15,08,38,18.60
2008,07,15,08,39,18.60
2008,07,15,08,40,18.60
2008,07,15,08,41,18.60
2008,07,15,08,42,18.60
2008,07,15,08,43,18.60
2008,07,15,08,44,18.60
2008,07,15,08,45,18.50
2008,07,15,08,46,18.50
2008,07,15,08,47,18.40
2008,07,15,08,48,18.40
2008,07,15,08,49,18.50
2008,07,15,08,50,18.50
2008,07,15,08,51,18.60
2008,07,15,08,52,18.60
2008,07,15,08,53,18.70
2008,07,15,08,54,18.80
2008,07,15,08,55,18.80
2008,07,15,08,56,18.90
2008,07,15,08,57,18.90
2008,07,15,08,58,19.00
2008,07,15,08,59,19.10
2008,07,15,09,00,19.00
2008,07,15,09,01,18.90
2008,07,15,09,02,18.80
2008,07,15,09,03,18.70
2008,07,15,09,04,18.80
2008,07,15,09,05,18.80
2008,07,15,09,06,18.80
2008,07,15,09,07,18.70
2008,07,15,09,08,18.70
2008,07,15,09,09,18.70
2008,07,15,09,10,18.70
2008,07,15,09,11,18.70
2008,07,15,09,12,18.80
2008,07,15,09,13,18.80
2008,07,15,09,14,18.80
2008,07,15,09,15,18.80
2008,07,15,09,16,18.70
2008,07,15,09,17,18.70
2008,07,15,09,18,18.60
2008,07,15,09,19,18.60
2008,07,15,09,20,18.50
2008,07,15,09,21,18.50
2008,07,15,09,22,18.40
2008,07,15,09,23,18.40
2008,07,15,09,24,18.50
2008,07,15,09,25,18.60
2008,07,15,09,26,18.70
2008,07,15,09,27,18.70
2008,07,15,09,28,18.80
2008,07,15,09,29,18.90
2008,07,15,09,30,18.90
2008,07,15,09,31,19.00
2008,07,15,09,32,19.10
2008,07,15,09,33,19.10
2008,07,15,09,34,19.20
2008,07,15,09,35,19.20
2008,07,15,09,36,19.20
2008,07,15,09,37,19.30
2008,07,15,09,38,19.30
2008,07,15,09,39,19.20
2008,07,15,09,40,19.10
2008,07,15,09,41,19.10
2008,07,15,09,42,19.20
2008,07,15,09,43,19.30
2008,07,15,09,44,19.30
2008,07,15,09,45,19.40
2008,07,15,09,46,19.50
2008,07,15,09,47,19.50
2008,07,15,09,48,19.50
2008,07,15,09,49,19.50
2008,07,15,09,50,19.40
2008,07,15,09,51,19.30
2008,07,15,09,52,19.30
2008,07,15,09,53,19.30
2008,07,15,09,54,19.40
2008,07,15,09,55,19.50
2008,07,15,09,56,19.60
2008,07,15,09,57,19.60
2008,07,15,09,58,19.70
2008,07,15,09,59,19.70
2008,07,15,10,00,19.80
2008,07,15,10,01,19.80
2008,07,15,10,02,19.80
2008,07,15,10,03,19.90
2008,07,15,10,04,19.90
2008,07,15,10,05,20.00
2008,07,15,10,06,20.00
2008,07,15,10,07,20.00
2008,07,15,10,08,20.10
2008,07,15,10,09,20.10
2008,07,15,10,10,20.20
2008,07,15,10,11,20.20
2008,07,15,10,12,20.30
2008,07,15,10,13,20.40
2008,07,15,10,14,20.40
2008,07,15,10,15,20.40
2008,07,15,10,16,20.40
2008,07,15,10,17,20.40
2008,07,15,10,18,20.40
2008,07,15,10,19,20.30
2008,07,15,10,20,20.30
2008,07,15,10,21,20.30
2008,07,15,10,22,20.30
2008,07,15,10,23,20.30
2008,07,15,10,24,20.40
2008,07,15,10,25,20.40
2008,07,15,10,26,20.30
2008,07,15,10,27,20.40
2008,07,15,10,28,20.50
2008,07,15,10,29,20.50
2008,07,15,10,30,20.50
2008,07,15,10,31,20.50
2008,07,15,10,32,20.50
2008,07,15,10,33,20.60
2008,07,15,10,34,20.60
2008,07,15,10,35,20.60
2008,07,15,10,36,20.60
2008,07,15,10,37,20.70
2008,07,15,10,38,20.80
2008,07,15,10,39,20.80
2008,07,15,10,40,20.70
2008,07,15,10,41,20.70
2008,07,15,10,42,20.70
2008,07,15,10,43,20.80
2008,07,15,10,44,20.80
2008,07,15,10,45,20.80
2008,07,15,10,46,20.80
2008,07,15,10,47,20.90
2008,07,15,10,48,20.90
2008,07,15,10,49,21.00
2008,07,15,10,50,21.00
2008,07,15,10,51,21.00
2008,07,15,10,52,21.00
2008,07,15,10,53,21.00
2008,07,15,10,54,21.00
2008,07,15,10,55,21.00
2008,07,15,10,56,21.00
2008,07,15,10,57,20.90
2008,07,15,10,58,20.90
2008,07,15,10,59,20.90
2008,07,15,11,00,20.80
2008,07,15,11,01,20.90
2008,07,15,11,02,20.90
2008,07,15,11,03,21.00
2008,07,15,11,04,21.00
2008,07,15,11,05,21.10
2008,07,15,11,06,21.20
2008,07,15,11,07,21.30
2008,07,15,11,08,21.30
2008,07,15,11,09,21.20
2008,07,15,11,10,21.10
2008,07,15,11,11,21.10
2008,07,15,11,12,21.10
2008,07,15,11,13,21.20
2008,07,15,11,14,21.30
2008,07,15,11,15,21.30
2008,07,15,11,16,21.40
2008,07,15,11,17,21.60
2008,07,15,11,18,21.60
2008,07,15,11,19,21.70
2008,07,15,11,20,21.70
2008,07,15,11,21,21.80
2008,07,15,11,22,21.80
2008,07,15,11,23,21.80
2008,07,15,11,24,21.70
2008,07,15,11,25,21.70
2008,07,15,11,26,21.70
2008,07,15,11,27,21.60
2008,07,15,11,28,21.50
2008,07,15,11,29,21.40
2008,07,15,11,30,21.20
2008,07,15,11,31,21.00
2008,07,15,11,32,20.90
2008,07,15,11,33,20.80
2008,07,15,11,34,20.70
2008,07,15,11,35,20.70
2008,07,15,11,36,20.80
2008,07,15,11,37,20.90
2008,07,15,11,38,21.00
2008,07,15,11,39,21.20
2008,07,15,11,40,21.20
2008,07,15,11,41,21.20
2008,07,15,11,42,21.20
2008,07,15,11,43,21.20
2008,07,15,11,44,21.30
2008,07,15,11,45,21.30
2008,07,15,11,46,21.40
2008,07,15,11,47,21.40
2008,07,15,11,48,21.40
2008,07,15,11,49,21.40
2008,07,15,11,50,21.40
2008,07,15,11,51,21.30
2008,07,15,11,52,21.30
2008,07,15,11,53,21.20
2008,07,15,11,54,21.20
2008,07,15,11,55,21.30
2008,07,15,11,56,21.30
2008,07,15,11,57,21.30
2008,07,15,11,58,21.20
2008,07,15,11,59,21.10
2008,07,15,12,00,21.00
2008,07,15,12,01,20.90
2008,07,15,12,02,20.90
2008,07,15,12,03,20.90
2008,07,15,12,04,20.80
2008,07,15,12,05,20.80
2008,07,15,12,06,20.80
2008,07,15,12,07,20.80
2008,07,15,12,08,20.80
2008,07,15,12,09,20.80
2008,07,15,12,10,20.80
2008,07,15,12,11,20.70
2008,07,15,12,12,20.70
2008,07,15,12,13,20.80
2008,07,15,12,14,20.90
2008,07,15,12,15,21.00
2008,07,15,12,16,21.10
2008,07,15,12,17,21.20
2008,07,15,12,18,21.20
2008,07,15,12,19,21.20
2008,07,15,12,20,21.20
2008,07,15,12,21,21.20
2008,07,15,12,22,21.30
2008,07,15,12,23,21.30
2008,07,15,12,24,21.30
2008,07,15,12,25,21.30
2008,07,15,12,26,21.30
2008,07,15,12,27,21.30
2008,07,15,12,28,21.40
2008,07,15,12,29,21.40
2008,07,15,12,30,21.30
2008,07,15,12,31,21.30
2008,07,15,12,32,21.20
2008,07,15,12,33,21.20
2008,07,15,12,34,21.20
2008,07,15,12,35,21.30
2008,07,15,12,36,21.30
2008,07,15,12,37,21.40
2008,07,15,12,38,21.40
2008,07,15,12,39,21.50
2008,07,15,12,40,21.70
2008,07,15,12,41,21.60
2008,07,15,12,42,21.60
2008,07,15,12,43,21.50
2008,07,15,12,44,21.30
2008,07,15,12,45,21.20
2008,07,15,12,46,21.10
2008,07,15,12,47,21.10
2008,07,15,12,48,21.10
2008,07,15,12,49,21.20
2008,07,15,12,50,21.20
2008,07,15,12,51,21.20
2008,07,15,12,52,21.20
2008,07,15,12,53,21.20
2008,07,15,12,54,21.20
2008,07,15,12,55,21.30
2008,07,15,12,56,21.40
2008,07,15,12,57,21.40
2008,07,15,12,58,21.50
2008,07,15,12,59,21.60
2008,07,15,13,00,21.50
2008,07,15,13,01,21.50
2008,07,15,13,02,21.60
2008,07,15,13,03,21.60
2008,07,15,13,04,21.70
2008,07,15,13,05,21.70
2008,07,15,13,06,21.70
2008,07,15,13,07,21.70
2008,07,15,13,08,21.80
2008,07,15,13,09,21.80
2008,07,15,13,10,21.60
2008,07,15,13,11,21.40
2008,07,15,13,12,21.30
2008,07,15,13,13,21.30
2008,07,15,13,14,21.20
2008,07,15,13,15,21.20
2008,07,15,13,16,21.10
2008,07,15,13,17,21.10
2008,07,15,13,18,21.00
2008,07,15,13,19,20.90
2008,07,15,13,20,20.90
2008,07,15,13,21,20.90
2008,07,15,13,22,21.00
2008,07,15,13,23,21.20
2008,07,15,13,24,21.30
2008,07,15,13,25,21.40
2008,07,15,13,26,21.50
2008,07,15,13,27,21.60
2008,07,15,13,28,21.70
2008,07,15,13,29,21.80
2008,07,15,13,30,21.80
2008,07,15,13,31,21.90
2008,07,15,13,32,21.80
2008,07,15,13,33,21.80
2008,07,15,13,34,21.80
2008,07,15,13,35,21.80
2008,07,15,13,36,21.80
2008,07,15,13,37,21.70
2008,07,15,13,38,21.60
2008,07,15,13,39,21.50
2008,07,15,13,40,21.40
2008,07,15,13,41,21.40
2008,07,15,13,42,21.40
2008,07,15,13,43,21.40
2008,07,15,13,44,21.30
2008,07,15,13,45,21.10
2008,07,15,13,46,21.10
2008,07,15,13,47,21.10
2008,07,15,13,48,21.10
2008,07,15,13,49,21.10
2008,07,15,13,50,21.20
2008,07,15,13,51,21.30
2008,07,15,13,52,21.40
2008,07,15,13,53,21.50
2008,07,15,13,54,21.60
2008,07,15,13,55,21.60
2008,07,15,13,56,21.60
2008,07,15,13,57,21.70
2008,07,15,13,58,21.70
2008,07,15,13,59,21.70
2008,07,15,14,00,21.70
2008,07,15,14,01,21.60
2008,07,15,14,02,21.60
2008,07,15,14,03,21.50
2008,07,15,14,04,21.50
2008,07,15,14,05,21.60
2008,07,15,14,06,21.60
2008,07,15,14,07,21.50
2008,07,15,14,08,21.60
2008,07,15,14,09,21.70
2008,07,15,14,10,21.80
2008,07,15,14,11,22.00
2008,07,15,14,12,22.20
2008,07,15,14,13,22.30
2008,07,15,14,14,22.40
2008,07,15,14,15,22.40
2008,07,15,14,16,22.30
2008,07,15,14,17,22.30
2008,07,15,14,18,22.30
2008,07,15,14,19,22.30
2008,07,15,14,20,22.30
2008,07,15,14,21,22.30
2008,07,15,14,22,22.30
2008,07,15,14,23,22.20
2008,07,15,14,24,22.20
2008,07,15,14,25,22.20
2008,07,15,14,26,22.30
2008,07,15,14,27,22.40
2008,07,15,14,28,22.40
2008,07,15,14,29,22.40
2008,07,15,14,30,22.40
2008,07,15,14,31,22.40
2008,07,15,14,32,22.40
2008,07,15,14,33,22.50
2008,07,15,14,34,22.60
2008,07,15,14,35,22.60
2008,07,15,14,36,22.60
2008,07,15,14,37,22.60
2008,07,15,14,38,22.60
2008,07,15,14,39,22.50
2008,07,15,14,40,22.50
2008,07,15,14,41,22.50
2008,07,15,14,42,22.50
2008,07,15,14,43,22.30
2008,07,15,14,44,22.20
2008,07,15,14,45,22.00
2008,07,15,14,46,21.80
2008,07,15,14,47,21.70
2008,07,15,14,48,21.70
2008,07,15,14,49,21.70
2008,07,15,14,50,21.80
2008,07,15,14,51,21.90
2008,07,15,14,52,22.00
2008,07,15,14,53,22.20
2008,07,15,14,54,22.30
2008,07,15,14,55,22.30
2008,07,15,14,56,22.40
2008,07,15,14,57,22.30
2008,07,15,14,58,22.30
2008,07,15,14,59,22.30
2008,07,15,15,00,22.40
2008,07,15,15,01,22.50
2008,07,15,15,02,22.60
2008,07,15,15,03,22.60
2008,07,15,15,04,22.70
2008,07,15,15,05,22.70
2008,07,15,15,06,22.70
2008,07,15,15,07,22.70
2008,07,15,15,08,22.60
2008,07,15,15,09,22.60
2008,07,15,15,10,22.50
2008,07,15,15,11,22.50
2008,07,15,15,12,22.40
2008,07,15,15,13,22.40
2008,07,15,15,14,22.40
2008,07,15,15,15,22.40
2008,07,15,15,16,22.30
2008,07,15,15,17,22.30
2008,07,15,15,18,22.40
2008,07,15,15,19,22.50
2008,07,15,15,20,22.60
2008,07,15,15,21,22.70
2008,07,15,15,22,22.80
2008,07,15,15,23,22.80
2008,07,15,15,24,22.80
2008,07,15,15,25,22.80
2008,07,15,15,26,22.70
2008,07,15,15,27,22.70
2008,07,15,15,28,22.60
2008,07,15,15,29,22.60
2008,07,15,15,30,22.70
2008,07,15,15,31,22.70
2008,07,15,15,32,22.80
2008,07,15,15,33,22.80
2008,07,15,15,34,22.80
2008,07,15,15,35,22.90
2008,07,15,15,36,23.10
2008,07,15,15,37,23.20
2008,07,15,15,38,23.30
2008,07,15,15,39,23.30
2008,07,15,15,40,23.30
2008,07,15,15,41,23.30
2008,07,15,15,42,23.10
2008,07,15,15,43,23.00
2008,07,15,15,44,22.90
2008,07,15,15,45,22.80
2008,07,15,15,46,22.60
2008,07,15,15,47,22.40
2008,07,15,15,48,22.30
2008,07,15,15,49,22.30
2008,07,15,15,50,22.30
2008,07,15,15,51,22.40
2008,07,15,15,52,22.40
2008,07,15,15,53,22.40
2008,07,15,15,54,22.50
2008,07,15,15,55,22.60
2008,07,15,15,56,22.70
2008,07,15,15,57,22.80
2008,07,15,15,58,22.80
2008,07,15,15,59,22.80
2008,07,15,16,00,22.80
2008,07,15,16,01,22.70
2008,07,15,16,02,22.60
2008,07,15,16,03,22.50
2008,07,15,16,04,22.40
2008,07,15,16,05,22.40
2008,07,15,16,06,22.40
2008,07,15,16,07,22.30
2008,07,15,16,08,22.30
2008,07,15,16,09,22.20
2008,07,15,16,10,22.20
2008,07,15,16,11,22.30
2008,07,15,16,12,22.30
2008,07,15,16,13,22.40
2008,07,15,16,14,22.40
2008,07,15,16,15,22.50
2008,07,15,16,16,22.50
2008,07,15,16,17,22.60
2008,07,15,16,18,22.70
2008,07,15,16,19,22.80
2008,07,15,16,20,22.90
2008,07,15,16,21,23.00
2008,07,15,16,22,23.10
2008,07,15,16,23,23.10
2008,07,15,16,24,23.20
2008,07,15,16,25,23.20
2008,07,15,16,26,23.10
2008,07,15,16,27,23.10
2008,07,15,16,28,23.20
2008,07,15,16,29,23.20
2008,07,15,16,30,23.30
2008,07,15,16,31,23.40
2008,07,15,16,32,23.50
2008,07,15,16,33,23.60
2008,07,15,16,34,23.80
2008,07,15,16,35,23.80
2008,07,15,16,36,23.90
2008,07,15,16,37,24.00
2008,07,15,16,38,24.00
2008,07,15,16,39,24.00
2008,07,15,16,40,24.10
2008,07,15,16,41,24.10
2008,07,15,16,42,24.10
2008,07,15,16,43,24.10
2008,07,15,16,44,24.10
2008,07,15,16,45,24.10
2008,07,15,16,46,24.20
2008,07,15,16,47,24.20
2008,07,15,16,48,24.20
2008,07,15,16,49,24.20
2008,07,15,16,50,24.30
2008,07,15,16,51,24.30
2008,07,15,16,52,24.30
2008,07,15,16,53,24.40
2008,07,15,16,54,24.50
2008,07,15,16,55,24.60
2008,07,15,16,56,24.70
2008,07,15,16,57,24.80
2008,07,15,16,58,24.90
2008,07,15,16,59,25.00
2008,07,15,17,00,25.10
2008,07,15,17,01,25.10
2008,07,15,17,02,25.20
2008,07,15,17,03,25.20
2008,07,15,17,04,25.20
2008,07,15,17,05,25.20
2008,07,15,17,06,25.30
2008,07,15,17,07,25.30
2008,07,15,17,08,25.30
2008,07,15,17,09,25.40
2008,07,15,17,10,25.40
2008,07,15,17,11,25.40
2008,07,15,17,12,25.50
2008,07,15,17,13,25.50
2008,07,15,17,14,25.60
2008,07,15,17,15,25.60
2008,07,15,17,16,25.60
2008,07,15,17,17,25.60
2008,07,15,17,18,25.60
2008,07,15,17,19,25.70
2008,07,15,17,20,25.70
2008,07,15,17,21,25.70
2008,07,15,17,22,25.70
2008,07,15,17,23,25.70
2008,07,15,17,24,25.60
2008,07,15,17,25,25.60
2008,07,15,17,26,25.50
2008,07,15,17,27,25.50
2008,07,15,17,28,25.50
2008,07,15,17,29,25.50
2008,07,15,17,30,25.50
2008,07,15,17,31,25.40
2008,07,15,17,32,25.50
2008,07,15,17,33,25.50
2008,07,15,17,34,25.50